Showing default

LPNTSAT-001, 68408

Orbit data source: Space-Track

LPNTSAT-001, 68408 is a payload satellite owned by ESA (ESA) in SSO that was launched on Sat, 28 Mar 2026 UTC via an ELECTRON launch vehicle from the Rocket Lab Launch Complex (RLLC). Payload-class satellites include a variety of spacecraft equipped with specific instruments for various scientific and technological missions. These include communications satellites like Starlink; space stations such as the ISS; scientific satellites like the Hubble; Earth observation satellites from companies like Planet Labs, Umbra, and HawkEye 360; GPS; miniature CubeSats for education and research; and military/defense satellites.

Loading next visibility...
Identifier
68408, 2026-065A
Orbit
SSO
Country
Flag of ESAESA
Related business
Manufacturer
GMV
Mission
Operational spacecraft
Bus & Motor
CUBESAT 12U, Unknown motor
Mass
20 kg wet, 20 kg dry
Launch date (UTC)
2026-03-28 (3 months ago)
Launch vehicle
ELECTRON
Launch site
Rocket Lab Launch Complex (RLLC)
Object type
Payload
Rocket body
Debris
Shape & HBR
Unknown shape, 0.2 m
Radar Cross Section
Medium (>0.1 m² and <1 m²)

Expand to show TLE details & history
Last TLE update: 23 hours ago

TLE from 23 hours ago
0 LPNTSAT-001
1 68408U 26065A   26170.91022944  .00002068  00000-0  10310-3 0  9996
2 68408  97.4012  51.3621 0016390   1.3346 358.7929 15.18549663 12672
Epoch: 2026-06-19T21:50Z
TLE epoch observation values (Epoch: 2026-06-19T21:50:43.823Z)
Latitude
-0.00005°
Longitude
175.54708°
Altitude
502.022 km
Speed
7.62 km/s
True Right ascension
03h 25m 26s
True Declination
0° 00' 00"
Sunlit
Object was in daylight at epoch
Visualization orbit readout
Latitude
Unknown
Longitude
Unknown
Altitude
Unknown
Speed
Unknown
Apparent Right ascension
Unknown
Apparent Declination
Unknown
Sunlit
N/A
Visualization observer readout
Local Sidereal Time
07:22:47
Azimuth
Unknown
Elevation
Unknown
Doppler factor
Unknown
Orbital elements
Apogee altitude
518.476 km
Perigee altitude
495.906 km
Semi-major axis
6,885.328 km
Eccentricity
0.00164
Inclination
97.4012°
RAAN
51.3621°
Arg. of periapsis
1.3346°
True anomaly
358.78894°
Mean anomaly
358.7929°
Eccentric anomaly
358.79092°
Mean motion
3.79889 °/min
Orbital period
94.76 mins
BSTAR
0.0001031
Loading maneuver chart data...
Computing Atmospheric mass density...
Loading historical data...
Loading historical data...
Loading historical data...
Loading historical data...
Loading historical data...
Loading historical data...
Loading historical data...
Other satellites on launch #65 in the year 2026 (2026-03-28 UTC)

Documentation

Showing up to 5 results
|